FENGYUN 1C DEB *, 47012

Orbit data source: Space-Track

FENGYUN 1C DEB *, 47012 is space debris in SSO originally from a launch on Mon, 10 May 1999 UTC launched from the Taiyaun Space Center, China (TSC). Fengyun 1C debris stems from the Chinese weather satellite Fengyun-1C, which was intentionally destroyed by a Chinese anti-satellite missile in 2007. This event dramatically increased the amount of space debris, with thousands of trackable fragments posing hazards to satellites and human spaceflight. The Fengyun 1C debris cloud has become a focal point in discussions about space sustainability and the need for international regulations to prevent the creation of new debris.

Loading next visibility...
Identifier
47012, 1999-025FAN
Orbit
SSO
Country
Flag of CNCN / PRC
Related business
Manufacturer
Unknown
Mission
Spacecraft
Bus & Motor
Unknown
Mass
Unknown
Launch date (UTC)
1999-05-10 (26 years ago)
Launch vehicle
Unknown
Launch site
Taiyaun Space Center, China (TSC)
Object type
Payload
Rocket body
Debris
Shape & HBR
Unknown shape, 0.1 m
Radar Cross Section
Small (<0.1 m²)

Expand to show TLE details & history
Last TLE update: 1 day ago

TLE from 1 day ago
0 FENGYUN 1C DEB *
1 47012U 99025FAN 25300.42967574  .00000471  00000-0  46178-3 0  9994
2 47012  98.7569 182.4765 0162621 187.4699 172.4028 13.77855609539355
Epoch: 2025-10-27T10:18Z
TLE epoch observation values (Epoch: 2025-10-27T10:18:43.983Z)
Latitude
-0.00008°
Longitude
-8.23839°
Altitude
1,092.885 km
Speed
7.247 km/s
True Right ascension
12h 09m 54s
True Declination
0° 00' 00"
Sunlit
Object was in daylight at epoch
Visualization orbit readout
Latitude
Unknown
Longitude
Unknown
Altitude
Unknown
Speed
Unknown
Apparent Right ascension
Unknown
Apparent Declination
Unknown
Sunlit
N/A
Visualization observer readout
Local Sidereal Time
16:42:43
Azimuth
Unknown
Elevation
Unknown
Doppler factor
Unknown
Orbital elements
Apogee altitude
1,088.194 km
Perigee altitude
849.244 km
Semi-major axis
7,346.856 km
Eccentricity
0.01626
Inclination
98.7569°
RAAN
182.4765°
Arg. of periapsis
187.4699°
True anomaly
172.6443°
Mean anomaly
172.4028°
Eccentric anomaly
172.52403°
Mean motion
3.4466 °/min
Orbital period
104.45 mins
BSTAR
0.00046178
Loading maneuver chart data...
Computing Atmospheric mass density...

Documentation

Showing up to 5 results
|